Current Version              Previous Version:    01  02  03  04  05  06  07  08  09  10  11  12  13  14  15  16  17  18  19  20  21  22  23  24  25  26  27  28  29  30  
   31  32  33  34  35  36  37  38  39  40  41  42  43  44  45  46  47  48  49  50  51  52  53  54  55  56  57  58  59  60  

[Printable]
186
ASUS44 KEWX 171110
RWRTX
SOUTH TEXAS REGIONAL WEATHER ROUNDUP
NATIONAL WEATHER SERVICE AUSTIN/SAN ANTONIO TX
600 AM CDT WED SEP 17 2014

NOTE: "FAIR" INDICATED FEW OR NO CLOUDS BELOW 12,000 FEET WITH NO
SIGNIFICANT WEATHER AND/OR OBSTRUCTIONS TO VISIBILITY.

* - THESE STATIONS ARE NOT NWS OR FAA STATIONS...AND ARE NOT SUBJECT
    TO NWS AND FAA QUALITY CONTROL.

TXZ171-172-183>190-171200-
TEXAS HILL COUNTRY AND EDWARDS PLATEAU

CITY           SKY/WX    TMP DP  RH WIND       PRES   REMARKS
JUNCTION       CLOUDY    72  68  87 CALM      30.00S
*LLANO         CLOUDY    75  72  88 CALM      30.01S
BURNET         CLOUDY    73  72  96 S5        30.00F FOG
*HORSESHOE BAY CLOUDY    74  74 100 CALM      29.98S FOG
*KERRVILLE     MOCLDY    74  72  92 SE3       30.00S
*FREDERICKSBRG CLOUDY    73  72  95 CALM      30.00S
*ROCKSPRINGS   CLOUDY    73  70  88 SE5       30.03F
*BOERNE STAGE  CLOUDY    73  72  94 CALM      30.00R
*CASTROVILLE   CLOUDY    78  75  90 SE3       29.96F
HONDO          CLOUDY    78  74  87 SE5       29.96F
*UVALDE        CLOUDY    76  75  94 E5        29.95F
DEL RIO        CLOUDY    77  73  87 E6        29.94R
LAUGHLIN AFB   CLOUDY    76  75  96 E6        29.95R
CARRIZO SPRGS  CLOUDY    73  73 100 E3        29.92R FOG
$$

TXZ173-191>194-202-209-217>225-228-171200-
CENTRAL AND SOUTH CENTRAL TEXAS

CITY           SKY/WX    TMP DP  RH WIND       PRES   REMARKS
GEORGETOWN     CLOUDY    75  73  94 S6        29.97S
AUSTIN/BERGSTM CLOUDY    76  74  93 CALM      29.95F
AUSTIN/MABRY   CLOUDY    76  74  93 CALM      29.97S
*AUSTIN/EXEC   CLOUDY    75  75 100 CALM      29.97S FOG
*LAGO VISTA    CLOUDY    75  73  93 CALM      29.99S FOG
SAN MARCOS     CLOUDY    75  72  88 E6        29.97R
NEW BRAUNFELS  CLOUDY    76  74  93 SE5       29.94S
RANDOLPH AFB   CLOUDY    76  74  96 E3        29.96R
PT SAN ANTONIO MOCLDY    77  76  97 SE5       29.94S
SAN ANTONIO    LGT RAIN  78  75  90 E6        29.96S
STINSON FIELD  CLOUDY    77  76  96 SE5       29.93S
*PLEASANTON    DRIZZLE   77  75  92 CALM      29.94S
*LA GRANGE     LGT RAIN  76  76 100 CALM      29.94S VSB 1/2
*GIDDINGS      FOG       74  73  95 CALM      30.00S VSB 1
*GONZALES      FOG       76  76  99 E3        29.94R VSB 1/2
$$

TXZ163>164-176>182-195>201-210>213-226-227-235-171200-
SOUTHEAST TEXAS

CITY           SKY/WX    TMP DP  RH WIND       PRES   REMARKS
COLLEGE STN    CLOUDY    75  74  96 SE3       29.96S
*BRYAN         CLOUDY   N/A N/A N/A CALM      29.96R HAZE
*CALDWELL      CLOUDY    75  75 100 CALM      29.99S FOG
*CROCKETT      CLOUDY    75  73  94 CALM      29.99F FOG
*BRENHAM       CLOUDY    76  75  97 CALM      29.96S FOG
HUNTSVILLE     CLOUDY    76  74  93 CALM      29.96S
CONROE         MOCLDY    74  74 100 CALM      29.96F FOG
HOUSTON BUSH   CLOUDY    76  75  97 CALM      29.95S
HOUSTON HOBBY  MOCLDY    78  76  93 CALM      29.94R
*HOUSTON SW AP MOCLDY    75  75 100 CALM      29.96R
PEARLAND       MOCLDY    78  76  93 CALM      29.96R
HOUSTON HOOKS  MOCLDY    75  74  96 CALM      29.95S
ELLINGTON FLD  CLOUDY    77  75  94 CALM      29.94F
SUGAR LAND     MOCLDY    78  75  90 CALM      29.95R
*HOUSTON EXEC  MOCLDY    75  75 100 CALM      29.96S FOG
*CLEVELAND MUN FOG       74  73  99 CALM      29.97R VSB 1/2
*WHARTON       PTCLDY    75  74  97 CALM      29.95S FOG
$$

TXZ214>216-236>238-171200-
THE UPPER TEXAS COAST

CITY           SKY/WX    TMP DP  RH WIND       PRES   REMARKS
*ORANGE        CLOUDY   N/A N/A N/A MISG      29.97S
PORT ARTHUR    CLOUDY    76  74  93 CALM      29.95R
GALVESTON      MOCLDY    81  78  91 CALM      29.94F
ANGLETON       MOCLDY    75  74  96 N3        29.94R
*BAY CITY      PTCLDY    76  76 100 CALM      29.94R
PALACIOS       PTCLDY    80  77  90 SW5       29.93S
$$

TXZ229>234-239>247-171200-
TEXAS COASTAL BEND AND RIO GRANDE PLAINS

CITY           SKY/WX    TMP DP  RH WIND       PRES   REMARKS
VICTORIA       LGT RAIN  78  76  93 E3        29.94S
*BEEVILLE      PTCLDY    76  76  98 S3        29.93S
ROCKPORT       MOCLDY    77  76  96 S3        29.92S
*PORT ARANSAS  PTCLDY    82  75  81 S10       29.92R
*PORT LAVACA   PTCLDY    76  75  96 CALM      29.93S FOG
*INGLESIDE     CLEAR     81  77  90 S5        29.92R
CORPUS CHRISTI PTCLDY    77  75  93 S5        29.92S
CORPUS NAS     MOCLDY    78  78 100 S7        29.92R
*ROBSTOWN      NOT AVBL
ALICE          PTCLDY    76  75  97 S6        29.92S
KINGSVILLE NAS CLEAR     77  77 100 S7        29.92S
COTULLA        CLOUDY   N/A N/A N/A E3        29.92S HAZE
*FAITH RANCH   CLOUDY    75  75 100 E3        29.93S
LAREDO         PTCLDY    77  77 100 SE8       29.94S
$$

TXZ248>255-171200-
DEEP SOUTH TEXAS

CITY           SKY/WX    TMP DP  RH WIND       PRES   REMARKS
BROWNSVILLE    CLEAR     77  76  96 S3        29.92S
PORT ISABEL    CLEAR     78  75  90 S5        29.92S
*SOUTH PADRE   CLEAR     81  77  89 S7        29.92S
HARLINGEN      CLEAR     76  75  97 SE3       29.91S
*HEBBRONVILLE  FOG       74  73  96 SE5       29.94S VSB 3/4
MCALLEN        PTCLDY    76  75  97 SE5       29.92S
*WESLACO       CLEAR     76  73  90 S5        29.92R
FALFURRIAS     PTCLDY   -27 -28  95 SE3       29.92S
EDINBURG       NOT AVBL
*ZAPATA        CLEAR     75  74  98 CALM      29.91S
$$

TXZ213>215-236>238-242>244-246-247-251-254-255-171200-
CMAN STATIONS

STATION/POSITION TIME  TEMP    WIND        PRES    WAVE
                       AIR SEA DIR/SP/G            HT/PER
                 (UTC) (F)     (DEG/KT/KT) (MB)    (FT/S)
SABINE PASS      1100   78 83   50/  2/  3 1014.3
SEA RIM ST PARK  1100   77      50/  2/  3 1014.7
NORTH JETTY/GLS  1100   82 84  180/  2/  4   N/A
EAGLE POINT      1100   80 82   CALM  /  1 1014.1
MORGANS POINT    1100   80        CALM     1014.0
MISSION/ARANSAS  1000   74     190/  5     1014.0
PORT O`CONNOR    1100          200/  6/  7   N/A
PORT ARANSAS     1100   83 83  190/ 14/ 16 1013.6
MALAQUITE BEACH  1100   81 84  200/  9/ 11 1012.4
BAFFIN BAY       1100   80 81  220/  8/ 10 1013.1
PORT ISABEL      1100   80 83   CALM  /  3 1013.5
$$

GMZ080-GMZ150>470-171200-
OFFSHORE BUOY REPORTS

STATION/POSITION TIME  TEMP    WIND        PRES    WAVE
                       AIR SEA DIR/SP/G            HT/PER
                 (UTC) (F)     (DEG/KT/KT) (MB)    (FT/S)
20 E GALVESTON   1100   82 84  210/  8/ 10 1013.5    2/ 6
90 E PT ARANSAS  1100   83 85  190/ 10/ 14 1013.7    2/ 7
35 NE PT MANSFLD 1100   83 84  180/ 14/ 16 1012.5    3/ 6
200 E PT ISABEL  1100   84 86  180/  8/ 12 1013.9    2/ 6
$$